Tracking 35237 objects as of 5-Sep-2026
HD Live streaming from Space Station
objects crossing your sky now

STARLINK-3892

Track STARLINK-3892 now!
10-day predictions
STARLINK-3892 is classified as:


NORAD ID: 52488
Int'l Code: 2022-049AP
Launch date: May 6, 2022
Source: United States (US)
Launch site: AIR FORCE EASTERN TEST RANGE (AFETR)
Your satellite tracking list
Your tracking list is empty




NASA's NSSDC Master Catalog

Two Line Element Set (TLE):
1 52488U 22049AP  26246.71452857  .00001629  00000-0  60868-4 0  9993
2 52488  53.1620 332.1724 0001247  79.6392 280.4750 15.33541183239237
Source of the keplerian elements: AFSPC